"Pseudo-MPEC" for C35FJJ2

Created 2020 Sep 22 10:07:04 UT using Find_Orb

Click here for an explanation of pseudo-MPECs

 
 Astrometry: 
     C35FJJ2  C2020 09 10.40519 01 04 52.67 -04 20 50.2    ~9AAb 20.8 GVNEOCPG96
     C35FJJ2  C2020 09 10.41043 01 04 47.30 -04 21 08.8    ~9AAb 20.6 GVNEOCPG96
     C35FJJ2  C2020 09 10.41568 01 04 42.07 -04 21 26.5    ~9AAb 21.0 GVNEOCPG96
     C35FJJ2  C2020 09 10.42094 01 04 36.68 -04 21 45.0    ~9AAb 21.9 GVNEOCPG96
     C35FJJ2  C2020 09 10.46819 01 03 50.12 -04 24 24.3    ~9ABb 21.5 GVNEOCPV06
     C35FJJ2  C2020 09 10.46982 01 03 48.58 -04 24 29.4    ~9ABb 20.4 GVNEOCPV06
     C35FJJ2  C2020 09 10.47145 01 03 46.99 -04 24 35.3    ~9ABb 21.6 GVNEOCPV06
     C35FJJ2  C2020 09 10.47307 01 03 45.46 -04 24 40.2    ~9ABb 21.1 GVNEOCPV06

Station data:
(G96) Mt. Lemmon Survey  (N32.442754 W110.788720)  US/Arizona.  Observers T.
   A. Pruyne, B. M. Africano, E. J. Christensen, G. A. Farneth, D. C. Fuls,
   A. R. Gibbs, A. D. Grauer, H. Gröller, J. A. Johnson, R. A. Kowalski, S.
   M. Larson, G. J. Leonard, D. Rankin, R. L. Seaman, F. C. Shelly. 1.5-m
   reflector + 10K CCD.
(V06) Catalina Sky Survey-Kuiper  (N32.416847 W110.732550)  US/Arizona.
   Observers T. A. Pruyne, B. M. Africano, E. J. Christensen, G. A. Farneth,
   D. C. Fuls, A. R. Gibbs, A. D. Grauer, H. Gröller, J. A. Johnson, R. A.
   Kowalski, S. M. Larson, G. J. Leonard, D. Rankin, R. L. Seaman, F. C.
   Shelly. 1.55-m reflector + CCD.

Orbital elements:  C35FJJ2
   Perihelion 2021 Feb 21.870876 +/- 180 TT = 20:54:03 (JD 2459267.370876)
Epoch 2020 Sep 10.0 TT = JDT 2459102.5   Earth MOID: 0.0001   AutoNEOCP
M 191.47140413 +/- 180              (J2000 ecliptic)
n   1.02218535 +/- 0.233            Peri.  113.86762 +/- 17
a   0.97599953 +/- 0.198            Node    43.15555 +/- 170
e   0.0389286 +/- 0.0566            Incl.    0.08702 +/- 0.57
P   0.96/352.18d           H 30.9   G  0.15   U 11.8  
q 0.93800516 +/- 0.111    Q 1.01399390 +/- 0.243
From 8 observations 2020 Sept. 10 (97.7 min); mean residual 0".32
Residuals in arcseconds: 
200910 G96  .32+  .04+    200910 G96  .58-  .03-    200910 V06  .23-  .30-    
200910 G96  .52-  .27-    200910 V06  .07+  .08-    200910 V06  .08-  .15+    
200910 G96  .69+  .28+    200910 V06  .32+  .21+    

Ephemerides (geocentric):
Date (UTC) HH   RA              Dec         delta   r     elong  mag " sig PA
---- -- -- --  -------------   -----------  ------ ------ -----  --- ---- ---
2020 09 22 10  22 43 41.695   -15 56 14.65  956062 1.0095 155.7 21.1  26d  73
2020 09 22 11  22 43 08.231   -15 58 14.41  955821 1.0094 155.6 21.1  26d  73
2020 09 22 12  22 42 34.751   -16 00 13.80  955580 1.0094 155.4 21.1  26d  73
2020 09 22 13  22 42 01.256   -16 02 12.81  955340 1.0094 155.2 21.1  26d  73
2020 09 22 14  22 41 27.745   -16 04 11.46  955101 1.0094 155.1 21.1  26d  73
2020 09 22 15  22 40 54.219   -16 06 09.73  954862 1.0094 154.9 21.1  26d  73
2020 09 22 16  22 40 20.678   -16 08 07.63  954623 1.0093 154.7 21.1  27d  73
2020 09 22 17  22 39 47.122   -16 10 05.15  954385 1.0093 154.6 21.1  27d  73
2020 09 22 18  22 39 13.551   -16 12 02.30  954148 1.0093 154.4 21.1  27d  73
2020 09 22 19  22 38 39.965   -16 13 59.07  953911 1.0093 154.3 21.2  27d  73
2020 09 22 20  22 38 06.364   -16 15 55.46  953674 1.0093 154.1 21.2  27d  73
2020 09 22 21  22 37 32.748   -16 17 51.47  953438 1.0092 153.9 21.2  27d  73
2020 09 22 22  22 36 59.117   -16 19 47.11  953202 1.0092 153.8 21.2  27d  73
2020 09 22 23  22 36 25.472   -16 21 42.36  952967 1.0092 153.6 21.2  27d  73
2020 09 23 00  22 35 51.811   -16 23 37.23  952732 1.0092 153.4 21.2  28d  73
2020 09 23 01  22 35 18.136   -16 25 31.72  952497 1.0091 153.3 21.2  28d  73
2020 09 23 02  22 34 44.447   -16 27 25.82  952263 1.0091 153.1 21.2  28d  73
2020 09 23 03  22 34 10.743   -16 29 19.54  952029 1.0091 152.9 21.2  28d  73
2020 09 23 04  22 33 37.024   -16 31 12.88  951796 1.0091 152.8 21.2  28d  74
2020 09 23 05  22 33 03.291   -16 33 05.82  951562 1.0091 152.6 21.2  28d  74
2020 09 23 06  22 32 29.543   -16 34 58.39  951329 1.0090 152.4 21.2  28d  74
2020 09 23 07  22 31 55.781   -16 36 50.56  951097 1.0090 152.2 21.2  28d  74
2020 09 23 08  22 31 22.005   -16 38 42.34  950864 1.0090 152.1 21.2  29d  74
2020 09 23 09  22 30 48.214   -16 40 33.74  950632 1.0090 151.9 21.2  29d  74
2020 09 23 10  22 30 14.409   -16 42 24.74  950401 1.0089 151.7 21.2  29d  74
2020 09 23 11  22 29 40.589   -16 44 15.35  950169 1.0089 151.6 21.2  29d  74
2020 09 23 12  22 29 06.756   -16 46 05.57  949938 1.0089 151.4 21.2  29d  74
2020 09 23 13  22 28 32.908   -16 47 55.40  949706 1.0089 151.2 21.2  29d  74
2020 09 23 14  22 27 59.046   -16 49 44.84  949476 1.0089 151.1 21.2  29d  74
2020 09 23 15  22 27 25.169   -16 51 33.87  949245 1.0088 150.9 21.2  29d  74
2020 09 23 16  22 26 51.279   -16 53 22.52  949014 1.0088 150.7 21.2  30d  74
2020 09 23 17  22 26 17.374   -16 55 10.77  948784 1.0088 150.6 21.2  30d  74
2020 09 23 18  22 25 43.456   -16 56 58.62  948554 1.0088 150.4 21.3  30d  74
2020 09 23 19  22 25 09.523   -16 58 46.07  948324 1.0087 150.2 21.3  30d  74
2020 09 23 20  22 24 35.576   -17 00 33.13  948094 1.0087 150.1 21.3  30d  74
2020 09 23 21  22 24 01.615   -17 02 19.78  947864 1.0087 149.9 21.3  30d  74
2020 09 23 22  22 23 27.640   -17 04 06.04  947634 1.0087 149.7 21.3  30d  74
2020 09 23 23  22 22 53.651   -17 05 51.89  947404 1.0087 149.5 21.3  31d  74
2020 09 24 00  22 22 19.648   -17 07 37.35  947175 1.0086 149.4 21.3  31d  75
2020 09 24 01  22 21 45.630   -17 09 22.40  946945 1.0086 149.2 21.3  31d  75
2020 09 24 02  22 21 11.599   -17 11 07.05  946716 1.0086 149.0 21.3  31d  75
2020 09 24 03  22 20 37.554   -17 12 51.30  946487 1.0086 148.9 21.3  31d  75
2020 09 24 04  22 20 03.494   -17 14 35.14  946257 1.0085 148.7 21.3  31d  75
2020 09 24 05  22 19 29.421   -17 16 18.58  946028 1.0085 148.5 21.3  31d  75
2020 09 24 06  22 18 55.334   -17 18 01.62  945799 1.0085 148.4 21.3  31d  75
2020 09 24 07  22 18 21.232   -17 19 44.25  945569 1.0085 148.2 21.3  32d  75
2020 09 24 08  22 17 47.117   -17 21 26.47  945340 1.0084 148.0 21.3  32d  75
2020 09 24 09  22 17 12.987   -17 23 08.28  945110 1.0084 147.8 21.3  32d  75